When you browse on this site, cookies collect data to enhance your experience and personalize the content and advertising you see.
Visit our Privacy Policy to learn more. By continuing to use the site, you agree to this use of cookies and data.
  • In Deutschland
  • Länderverzeichnis
  • Für 7 Tage
  • Wassertemperatur
  • Satellitenkarten
  • Wetterkarte
  • Widgets
  • user-avatar
    Anmelden

    Stündliche Wetter Uige

    Heute, 23 März, Samstag

    Zeit Temperatur Niederschläge Wind Luftdruck Luftfeuchtigkeit
    00:00 +23°C° 3 mm 1 m/S 689 mmHg 97%
    01:00 +23°C° 0 mm 1 m/S 690 mmHg 98%
    02:00 +23°C° 0.2 mm 1 m/S 689 mmHg 98%
    03:00 +23°C° 0.2 mm 1 m/S 689 mmHg 97%
    04:00 +23°C° 0.2 mm 1 m/S 689 mmHg 97%
    05:00 +23°C° 0.1 mm 1 m/S 690 mmHg 96%
    06:00 +21°C° 0.1 mm 0 m/S 690 mmHg 96%
    07:00 +21°C° 0.1 mm 0 m/S 690 mmHg 96%
    08:00 +23°C° 0.6 mm 0 m/S 691 mmHg 89%
    09:00 +26°C° 0.6 mm 0 m/S 691 mmHg 82%
    10:00 +28°C° 0.6 mm 0 m/S 692 mmHg 76%
    11:00 +29°C° 1.3 mm 1 m/S 691 mmHg 75%
    12:00 +29°C° 1.3 mm 1 m/S 691 mmHg 75%
    13:00 +29°C° 1.3 mm 1 m/S 690 mmHg 75%
    14:00 +29°C° 0.4 mm 1 m/S 690 mmHg 75%
    15:00 +28°C° 0.4 mm 1 m/S 690 mmHg 75%
    16:00 +28°C° 0.4 mm 1 m/S 689 mmHg 75%
    17:00 +27°C° 0.5 mm 1 m/S 689 mmHg 81%
    18:00 +25°C° 0.5 mm 1 m/S 689 mmHg 87%
    19:00 +24°C° 0.5 mm 1 m/S 689 mmHg 93%
    20:00 +23°C° 0.2 mm 1 m/S 690 mmHg 95%
    21:00 +23°C° 0.2 mm 1 m/S 690 mmHg 96%
    22:00 +22°C° 0.2 mm 1 m/S 690 mmHg 98%
    23:00 +23°C° 0 mm 1 m/S 690 mmHg 98%

    Morgen, 24 März, Sonntag

    Zeit Temperatur Niederschläge Wind Luftdruck Luftfeuchtigkeit
    00:00 +23°C° 0 mm 1 m/S 691 mmHg 98%
    01:00 +24°C° 0 mm 1 m/S 691 mmHg 98%
    02:00 +23°C° 0.4 mm 1 m/S 690 mmHg 98%
    03:00 +23°C° 0.4 mm 1 m/S 690 mmHg 98%
    04:00 +23°C° 0.4 mm 1 m/S 690 mmHg 99%
    05:00 +23°C° 0.3 mm 1 m/S 690 mmHg 99%
    06:00 +23°C° 0.3 mm 1 m/S 690 mmHg 98%
    07:00 +23°C° 0.3 mm 1 m/S 691 mmHg 98%
    08:00 +24°C° 0.1 mm 1 m/S 691 mmHg 97%
    09:00 +24°C° 0.1 mm 1 m/S 691 mmHg 95%
    10:00 +25°C° 0.1 mm 2 m/S 692 mmHg 94%
    11:00 +27°C° 0 mm 2 m/S 691 mmHg 84%
    12:00 +29°C° 0 mm 2 m/S 691 mmHg 74%
    13:00 +31°C° 0 mm 2 m/S 690 mmHg 64%
    14:00 +30°C° 1.4 mm 2 m/S 690 mmHg 72%
    15:00 +28°C° 1.4 mm 1 m/S 689 mmHg 81%
    16:00 +27°C° 1.4 mm 1 m/S 689 mmHg 90%
    17:00 +26°C° 2.3 mm 1 m/S 689 mmHg 92%
    18:00 +25°C° 2.3 mm 1 m/S 689 mmHg 94%
    19:00 +23°C° 2.3 mm 1 m/S 689 mmHg 96%
    20:00 +23°C° 1.2 mm 1 m/S 690 mmHg 96%
    21:00 +23°C° 1.2 mm 1 m/S 691 mmHg 97%
    22:00 +23°C° 1.2 mm 1 m/S 691 mmHg 97%
    23:00 +23°C° 0.2 mm 1 m/S 691 mmHg 98%

    übermorgen, 25 März, Montag

    Zeit Temperatur Niederschläge Wind Luftdruck Luftfeuchtigkeit
    00:00 +23°C° 0.2 mm 1 m/S 691 mmHg 98%
    01:00 +22°C° 0.2 mm 1 m/S 690 mmHg 99%
    02:00 +22°C° 0.2 mm 1 m/S 690 mmHg 99%
    03:00 +22°C° 0.2 mm 1 m/S 689 mmHg 99%
    04:00 +23°C° 0.2 mm 1 m/S 689 mmHg 99%
    05:00 +23°C° 0 mm 1 m/S 690 mmHg 99%
    06:00 +23°C° 0 mm 1 m/S 690 mmHg 99%
    07:00 +23°C° 0 mm 1 m/S 691 mmHg 99%
    08:00 +23°C° 0.6 mm 1 m/S 691 mmHg 98%
    09:00 +24°C° 0.6 mm 1 m/S 692 mmHg 97%
    10:00 +24°C° 0.6 mm 1 m/S 692 mmHg 96%
    11:00 +24°C° 0.6 mm 1 m/S 692 mmHg 95%
    12:00 +25°C° 0.6 mm 1 m/S 691 mmHg 93%
    13:00 +23°C° 0.6 mm 0 m/S 690 mmHg 92%
    14:00 +25°C° 0.4 mm 1 m/S 690 mmHg 91%
    15:00 +25°C° 0.4 mm 1 m/S 689 mmHg 91%
    16:00 +25°C° 0.4 mm 1 m/S 689 mmHg 90%
    17:00 +25°C° 0.2 mm 1 m/S 689 mmHg 93%
    18:00 +24°C° 0.2 mm 1 m/S 690 mmHg 95%
    19:00 +23°C° 0.2 mm 1 m/S 690 mmHg 98%
    20:00 +23°C° 0 mm 1 m/S 691 mmHg 98%
    21:00 +22°C° 0 mm 1 m/S 691 mmHg 99%
    22:00 +22°C° 0 mm 1 m/S 692 mmHg 99%
    23:00 +22°C° 0 mm 1 m/S 691 mmHg 99%

    26 März, Dienstag

    Zeit Temperatur Niederschläge Wind Luftdruck Luftfeuchtigkeit
    00:00 +22°C° 0 mm 1 m/S 691 mmHg 99%
    01:00 +21°C° 0 mm 1 m/S 691 mmHg 99%
    02:00 +21°C° 0 mm 1 m/S 690 mmHg 98%
    03:00 +21°C° 0 mm 1 m/S 690 mmHg 98%
    04:00 +21°C° 0 mm 1 m/S 689 mmHg 97%
    05:00 +21°C° 0 mm 1 m/S 690 mmHg 96%
    06:00 +21°C° 0 mm 1 m/S 690 mmHg 95%
    07:00 +21°C° 0 mm 1 m/S 691 mmHg 94%
    08:00 +23°C° 0 mm 1 m/S 691 mmHg 86%
    09:00 +25°C° 0 mm 1 m/S 692 mmHg 78%
    10:00 +27°C° 0 mm 1 m/S 693 mmHg 70%
    11:00 +29°C° 0.1 mm 1 m/S 692 mmHg 62%
    12:00 +31°C° 0.1 mm 1 m/S 692 mmHg 54%
    13:00 +31°C° 0.1 mm 0 m/S 691 mmHg 45%
    14:00 +33°C° 0 mm 1 m/S 691 mmHg 49%
    15:00 +32°C° 0 mm 1 m/S 690 mmHg 53%
    16:00 +31°C° 0 mm 2 m/S 690 mmHg 56%
    17:00 +28°C° 0.3 mm 1 m/S 690 mmHg 68%
    18:00 +26°C° 0.3 mm 1 m/S 690 mmHg 80%
    19:00 +23°C° 0.3 mm 1 m/S 690 mmHg 91%
    20:00 +21°C° 0.1 mm 0 m/S 691 mmHg 92%
    21:00 +21°C° 0.1 mm 0 m/S 691 mmHg 94%
    22:00 +20°C° 0.1 mm 0 m/S 692 mmHg 95%
    23:00 +20°C° 0.6 mm 0 m/S 691 mmHg 96%

    27 März, Mittwoch

    Zeit Temperatur Niederschläge Wind Luftdruck Luftfeuchtigkeit
    00:00 +20°C° 0.6 mm 0 m/S 691 mmHg 97%
    01:00 +20°C° 0.6 mm 0 m/S 691 mmHg 97%
    02:00 +20°C° 0 mm 0 m/S 691 mmHg 97%
    03:00 +20°C° 0 mm 0 m/S 690 mmHg 96%
    04:00 +20°C° 0 mm 0 m/S 690 mmHg 96%
    05:00 +22°C° 0 mm 1 m/S 691 mmHg 96%
    06:00 +22°C° 0 mm 1 m/S 691 mmHg 95%
    07:00 +22°C° 0 mm 1 m/S 692 mmHg 95%
    08:00 +25°C° 0 mm 1 m/S 692 mmHg 83%
    09:00 +28°C° 0 mm 1 m/S 693 mmHg 72%
    10:00 +30°C° 0 mm 1 m/S 693 mmHg 60%
    11:00 +32°C° 0 mm 1 m/S 693 mmHg 54%
    12:00 +33°C° 0 mm 1 m/S 692 mmHg 47%
    13:00 +33°C° 0 mm 0 m/S 692 mmHg 40%
    14:00 +34°C° 0 mm 1 m/S 691 mmHg 43%
    15:00 +34°C° 0 mm 1 m/S 691 mmHg 46%
    16:00 +33°C° 0 mm 1 m/S 690 mmHg 49%
    17:00 +31°C° 0 mm 1 m/S 691 mmHg 58%
    18:00 +28°C° 0 mm 1 m/S 691 mmHg 68%
    19:00 +26°C° 0 mm 1 m/S 691 mmHg 77%
    20:00 +25°C° 0.8 mm 1 m/S 691 mmHg 82%
    21:00 +24°C° 0.8 mm 1 m/S 692 mmHg 88%
    22:00 +23°C° 0.8 mm 1 m/S 692 mmHg 93%
    23:00 +23°C° 0.2 mm 1 m/S 692 mmHg 93%

    28 März, Donnerstag

    Zeit Temperatur Niederschläge Wind Luftdruck Luftfeuchtigkeit
    00:00 +23°C° 0.2 mm 1 m/S 692 mmHg 93%
    01:00 +23°C° 0.2 mm 1 m/S 691 mmHg 94%
    02:00 +23°C° 0 mm 1 m/S 691 mmHg 93%
    03:00 +23°C° 0 mm 1 m/S 691 mmHg 92%
    04:00 +23°C° 0 mm 1 m/S 690 mmHg 91%
    05:00 +23°C° 0 mm 1 m/S 691 mmHg 91%
    06:00 +23°C° 0 mm 1 m/S 691 mmHg 91%
    07:00 +23°C° 0 mm 1 m/S 692 mmHg 90%
    08:00 +25°C° 0 mm 1 m/S 692 mmHg 80%
    09:00 +28°C° 0 mm 1 m/S 693 mmHg 70%
    10:00 +30°C° 0 mm 1 m/S 693 mmHg 60%
    11:00 +32°C° 0 mm 1 m/S 693 mmHg 54%
    12:00 +34°C° 0 mm 1 m/S 692 mmHg 49%
    13:00 +36°C° 0 mm 1 m/S 692 mmHg 43%
    14:00 +34°C° 0 mm 1 m/S 691 mmHg 50%
    15:00 +32°C° 0 mm 1 m/S 690 mmHg 56%
    16:00 +30°C° 0 mm 1 m/S 689 mmHg 63%
    17:00 +29°C° 0.7 mm 1 m/S 690 mmHg 70%
    18:00 +27°C° 0.7 mm 1 m/S 690 mmHg 76%
    19:00 +26°C° 0.7 mm 1 m/S 690 mmHg 83%
    20:00 +25°C° 1.5 mm 1 m/S 691 mmHg 87%
    21:00 +24°C° 1.5 mm 1 m/S 691 mmHg 91%
    22:00 +24°C° 1.5 mm 1 m/S 692 mmHg 95%
    23:00 +24°C° 0.2 mm 1 m/S 691 mmHg 96%
    Mehr zeigen